Time_in_sec,Mx,My,Mz
1314273528.25405335,-0.39697519,0.50200540,-0.78654194
1314273528.30146623,-0.39474428,0.50171775,-0.78548276
1314273528.35350132,-0.39507762,0.50248748,-0.78643721
1314273528.40446377,-0.39691094,0.50403041,-0.78748298
1314273528.45255184,-0.39461005,0.50199252,-0.78773499
1314273528.50159836,-0.39544132,0.50198060,-0.78579015
1314273528.55257821,-0.39639920,0.49985418,-0.78622746
1314273528.60149765,-0.39485180,0.50224155,-0.78721941
1314273528.65407228,-0.39472499,0.50136107,-0.78747123
1314273528.70152617,-0.39635473,0.50339264,-0.78731370
1314273528.75265074,-0.39525616,0.50388110,-0.78698903
1314273528.80476642,-0.39442846,0.50122738,-0.78705490
1314273528.85251617,-0.39663249,0.50113243,-0.78771120
1314273528.90164351,-0.39352199,0.50288481,-0.78980452
1314273528.95249724,-0.39585581,0.50404835,-0.79021204
1314273529.00160837,-0.39610416,0.50100327,-0.78794575
1314273529.05379820,-0.39593443,0.50175005,-0.78727752
1314273529.10161114,-0.39516327,0.50225228,-0.78790134
1314273529.15248322,-0.39633143,0.50353843,-0.78917289
1314273529.20179915,-0.39511606,0.50239348,-0.78936064
1314273529.25249505,-0.39364329,0.50298500,-0.78728873
1314273529.30164027,-0.39521614,0.50087851,-0.78895664
1314273529.35251522,-0.39509723,0.50100601,-0.78921646
1314273529.40150452,-0.39528367,0.50340754,-0.78977615
1314273529.45247746,-0.39443997,0.50175720,-0.78945011
1314273529.50153875,-0.39668235,0.50038713,-0.78863823
1314273529.55287862,-0.39527473,0.50328004,-0.78964192
1314273529.60448503,-0.39488426,0.50239795,-0.79001153
1314273529.65366197,-0.39404541,0.50238401,-0.78956509
1314273529.70146537,-0.39446774,0.50327218,-0.78972858
1314273529.75246954,-0.39486042,0.50138694,-0.78973699
1314273529.80149698,-0.39647436,0.50140262,-0.78956360
1314273529.85248065,-0.39612666,0.50090617,-0.79060262
1314273529.90159988,-0.39459857,0.50365019,-0.78960603
1314273529.95346165,-0.39498806,0.50440627,-0.78923547
1314273530.00154614,-0.39495155,0.49974450,-0.78919876
1314273530.05354238,-0.39660525,0.50077420,-0.78956640
1314273530.10149002,-0.39643264,0.50013655,-0.78902060
1314273530.15349889,-0.39505926,0.50326324,-0.78830135
1314273530.20162630,-0.39585897,0.50140703,-0.79059106
1314273530.25246048,-0.39443201,0.50175565,-0.78931683
1314273530.30151463,-0.39513245,0.50136572,-0.78749454
1314273530.35390997,-0.39700270,0.50153184,-0.78932911
1314273530.40446568,-0.39546236,0.50278831,-0.79057866
1314273530.45276856,-0.39550963,0.50164062,-0.78924471
1314273530.50053334,-0.39580920,0.50114590,-0.78978938
1314273530.55250406,-0.39682895,0.50278109,-0.78853154
1314273530.60529804,-0.39447731,0.50035608,-0.78798091
1314273530.65376663,-0.39532602,0.50162995,-0.78843725
1314273530.70450377,-0.39561412,0.50279289,-0.79085296
1314273530.75348663,-0.39536881,0.50201553,-0.78910661
1314273530.80202937,-0.39493260,0.50036991,-0.78880388
1314273530.85333562,-0.39539403,0.50312823,-0.78712410
1314273530.90160322,-0.39357710,0.50375158,-0.78835315
1314273530.95249367,-0.39451292,0.50388545,-0.78814197
1314273531.00162125,-0.39537922,0.50123829,-0.78710926
1314273531.05350637,-0.39388412,0.50210154,-0.78689748
1314273531.10160089,-0.39601949,0.50136447,-0.78648263
1314273531.15359497,-0.39530298,0.50376427,-0.78778768
1314273531.20633149,-0.39405385,0.50135475,-0.78756571
1314273531.25259471,-0.39483297,0.50085407,-0.78707522
1314273531.30135274,-0.39592752,0.50086808,-0.78727061
1314273531.35268760,-0.39508066,0.50185907,-0.78656554
1314273531.40154934,-0.39472592,0.50249350,-0.78734690
1314273531.45248556,-0.39453730,0.50285923,-0.78640914
1314273531.50153852,-0.39599559,0.50135988,-0.78608280
1314273531.55361819,-0.39581084,0.50323606,-0.78502369
1314273531.60170865,-0.39482132,0.50233710,-0.78442925
1314273531.65259814,-0.39610535,0.50412422,-0.78531271
1314273531.70159674,-0.39509743,0.50400096,-0.78658241
1314273531.75246859,-0.39476055,0.50270289,-0.78336596
1314273531.80156898,-0.39441243,0.50004321,-0.78239667
1314273531.85367227,-0.39597204,0.50233746,-0.78329962
1314273531.89349532,-0.39320868,0.50342953,-0.78222030
1314273531.95246530,-0.39487234,0.50471276,-0.78272319
1314273532.00160289,-0.39288977,0.50457400,-0.78353870
1314273532.05360198,-0.39553058,0.50408751,-0.78249049
1314273532.10546112,-0.39405358,0.50218654,-0.78292334
1314273532.15469241,-0.39267486,0.50470757,-0.78445715
1314273532.20161939,-0.39375257,0.50358605,-0.78451031
1314273532.25381064,-0.39511126,0.50257093,-0.78245533
1314273532.30160570,-0.39450735,0.50091761,-0.78161168
1314273532.35360742,-0.39503324,0.50182557,-0.78350782
1314273532.40182972,-0.39539990,0.50169665,-0.78286374
1314273532.45351624,-0.39598697,0.50221449,-0.78356516
1314273532.50150752,-0.39459103,0.50043035,-0.78307378
1314273532.55246210,-0.39434558,0.50166589,-0.78107679
1314273532.60162711,-0.39543670,0.50233269,-0.78340185
1314273532.65368319,-0.39561933,0.50221741,-0.78420830
1314273532.70166659,-0.39441925,0.50193161,-0.78227824
1314273532.75250149,-0.39491469,0.50293517,-0.78138429
1314273532.80272007,-0.39452723,0.50142461,-0.78188223
1314273532.85248995,-0.39467701,0.50117725,-0.78215456
1314273532.90159345,-0.39486340,0.50458527,-0.78258896
1314273532.95249605,-0.39458886,0.50319767,-0.78269577
1314273533.00061035,-0.39521721,0.50281835,-0.78193194
1314273533.05354643,-0.39407578,0.50392765,-0.78081250
1314273533.10149670,-0.39627299,0.50194430,-0.78158730
1314273533.15247750,-0.39408630,0.50433153,-0.78320676
1314273533.20444655,-0.39472461,0.50420570,-0.78257823
1314273533.25347877,-0.39503029,0.50144756,-0.78350490
1314273533.30152822,-0.39388993,0.50167644,-0.78251177
1314273533.35255599,-0.39407894,0.50128633,-0.78119153
1314273533.40153456,-0.39537948,0.50322682,-0.78460056
1314273533.45427966,-0.39410937,0.50219721,-0.78385633
1314273533.50054359,-0.39440939,0.50067163,-0.78226835
1314273533.55246997,-0.39487037,0.50446075,-0.78272122
1314273533.60239959,-0.39538792,0.50219756,-0.78260118
1314273533.65249443,-0.39440483,0.50321132,-0.78414637
1314273533.70161867,-0.39478058,0.50119704,-0.78388721
1314273533.75245428,-0.39435309,0.50269818,-0.78334272
1314273533.80146313,-0.39506024,0.50019526,-0.78416139
1314273533.85373330,-0.39449385,0.50332975,-0.78335541
1314273533.90449214,-0.39599344,0.50093323,-0.78156382
1314273533.95251346,-0.39380485,0.50206196,-0.78330666
1314273534.00156713,-0.39593327,0.50144935,-0.78275955
1314273534.05305481,-0.39545318,0.50029856,-0.78166109
1314273534.10164261,-0.39549196,0.50118661,-0.78220117
1314273534.15415454,-0.39473566,0.50257230,-0.78296512
1314273534.20518088,-0.39433813,0.50282115,-0.78307712
1314273534.25246882,-0.39400679,0.50230336,-0.78212470
1314273534.30151343,-0.39501727,0.50282896,-0.78311592
1314273534.35248828,-0.39579237,0.50283068,-0.78249615
1314273534.40311670,-0.39508197,0.50296712,-0.78418320
1314273534.45258498,-0.39379084,0.50331736,-0.78291678
1314273534.50160837,-0.39541280,0.50232816,-0.78300196
1314273534.55246854,-0.39390579,0.50268590,-0.78265297
1314273534.60164309,-0.39453816,0.50180411,-0.78201848
1314273534.65363622,-0.39570335,0.50271231,-0.78328705
1314273534.70447373,-0.39447454,0.50297302,-0.78534389
1314273534.75246453,-0.39385602,0.50242478,-0.78185135
1314273534.80226493,-0.39520779,0.50372165,-0.78393030
1314273534.85260081,-0.39498439,0.50269687,-0.78258181
1314273534.90194893,-0.39489144,0.50207448,-0.78336877
1314273534.95246577,-0.39468551,0.50233555,-0.78442150
1314273535.00453043,-0.39502430,0.50169808,-0.78337359
1314273535.05246043,-0.39434323,0.50143826,-0.78333277
1314273535.10516644,-0.39456454,0.50321746,-0.78455395
1314273535.15333915,-0.39395714,0.50322336,-0.78571463
1314273535.20185423,-0.39441633,0.50374115,-0.78654158
1314273535.25258756,-0.39524019,0.50169051,-0.78245616
1314273535.30447888,-0.39503095,0.50059146,-0.78588921
1314273535.35248590,-0.39607164,0.50185323,-0.78502828
1314273535.40166426,-0.39512080,0.50284874,-0.78484857
1314273535.45366907,-0.39475217,0.50272572,-0.78549069
1314273535.50458717,-0.39573586,0.50186229,-0.78620452
1314273535.55246449,-0.39589903,0.50121564,-0.78448242
1314273535.60171008,-0.39568305,0.50222963,-0.78527451
1314273535.65248060,-0.39514813,0.50539452,-0.78725970
1314273535.70159650,-0.39446914,0.50337386,-0.78747159
1314273535.75256920,-0.39547950,0.50271833,-0.78407121
1314273535.80147481,-0.39455765,0.50233549,-0.78454703
1314273535.85247183,-0.39422178,0.50335097,-0.78559786
1314273535.90160990,-0.39466417,0.50273329,-0.78628260
1314273535.95260882,-0.39512944,0.50199419,-0.78736621
1314273536.00158048,-0.39517057,0.50310987,-0.78565025
1314273536.05361915,-0.39286461,0.50245494,-0.78564662
1314273536.10065269,-0.39563185,0.50287324,-0.78660452
1314273536.15244794,-0.39525110,0.50526398,-0.78673333
1314273536.20158768,-0.39443517,0.50512862,-0.78668576
1314273536.25043082,-0.39557207,0.50336504,-0.78554225
1314273536.30154777,-0.39609301,0.50364304,-0.78743345
1314273536.35259795,-0.39589044,0.50425774,-0.78623110
1314273536.40168953,-0.39434326,0.50362581,-0.78759909
1314273536.45255351,-0.39519605,0.50339079,-0.78831005
1314273536.50560093,-0.39532983,0.50414681,-0.78819048
1314273536.55246854,-0.39551097,0.50274873,-0.78686231
1314273536.60156202,-0.39569160,0.50238144,-0.78766680
1314273536.65244389,-0.39572236,0.50427443,-0.78794825
1314273536.70150900,-0.39569154,0.50338787,-0.78754145
1314273536.75266743,-0.39525616,0.50388110,-0.78698903
1314273536.80230212,-0.39400691,0.50348449,-0.78651631
1314273536.85250068,-0.39496768,0.50274253,-0.78683126
1314273536.90156913,-0.39499158,0.50274706,-0.78723109
1314273536.95241237,-0.39480650,0.50364113,-0.78855532
1314273537.00458813,-0.39563251,0.50201714,-0.78898889
1314273537.05413413,-0.39267060,0.50322145,-0.78683656
1314273537.10160875,-0.39649516,0.50304210,-0.78970981
1314273537.15248466,-0.39426965,0.50554764,-0.79066390
1314273537.20217586,-0.39549661,0.50302202,-0.78885573
1314273537.25250840,-0.39459100,0.50362438,-0.78721476
1314273537.30160904,-0.39507920,0.50276381,-0.78869718
1314273537.35253239,-0.39593792,0.50328481,-0.78941417
1314273537.40160298,-0.39530355,0.50391459,-0.79004669
1314273537.45401382,-0.39542043,0.50454158,-0.78965956
1314273537.50458002,-0.39535880,0.50276846,-0.78884602
1314273537.55249858,-0.39531198,0.50288534,-0.78804731
1314273537.60292268,-0.39535478,0.50327092,-0.78871667
1314273537.65259719,-0.39475146,0.50176793,-0.79013205
1314273537.70160413,-0.39540306,0.50224930,-0.78738374
1314273537.75247955,-0.39592203,0.50227529,-0.78927296
1314273537.80161238,-0.39635432,0.50341702,-0.78957170
1314273537.85385776,-0.39518324,0.50175285,-0.78829718
1314273537.90449929,-0.39492795,0.50391597,-0.79055649
1314273537.95345950,-0.39432305,0.50213665,-0.78971189
1314273538.00188637,-0.39411843,0.50350583,-0.78838223
1314273538.05258393,-0.39632055,0.50215244,-0.78916198
1314273538.10450077,-0.39509869,0.50329518,-0.79122573
1314273538.15248609,-0.39433178,0.50528353,-0.78947014
1314273538.20162082,-0.39504391,0.50341052,-0.79029375
1314273538.25374007,-0.39547434,0.50228733,-0.79084122
1314273538.29349232,-0.39445075,0.50414962,-0.78933567
1314273538.35361242,-0.39621055,0.50341392,-0.78943068
1314273538.40447545,-0.39531237,0.50605500,-0.78993028
1314273538.45248914,-0.39417660,0.50593168,-0.79132551
1314273538.50161982,-0.39541662,0.50202471,-0.78990632
1314273538.55264616,-0.39585784,0.50329387,-0.79033935
1314273538.60167599,-0.39558831,0.50152987,-0.79057652
1314273538.65245986,-0.39401954,0.50212747,-0.78916323
1314273538.70059323,-0.39474189,0.50468409,-0.79187977
1314273538.75362539,-0.39493704,0.50203061,-0.79094148
1314273538.80180836,-0.39435583,0.50327522,-0.79012066
1314273538.85362482,-0.39654994,0.50292677,-0.79064173
1314273538.90159988,-0.39469317,0.50354248,-0.79120439
1314273538.95249510,-0.39379522,0.50316423,-0.79208004
1314273539.00059700,-0.39376336,0.50315815,-0.79154694
1314273539.05358624,-0.39499611,0.50340140,-0.78949410
1314273539.10146689,-0.39722911,0.50192815,-0.79080594
1314273539.15245390,-0.39501664,0.50305229,-0.79214895
1314273539.20049405,-0.39554894,0.50368547,-0.79191840
1314273539.25259638,-0.39382452,0.50276804,-0.79035223
1314273539.30059576,-0.39608178,0.50228143,-0.78968054
1314273539.35248518,-0.39653993,0.50367969,-0.79038113
1314273539.40158892,-0.39458710,0.50530791,-0.79147708
1314273539.45043683,-0.39313689,0.50479591,-0.79218739
1314273539.50044751,-0.39595753,0.50180328,-0.79219335
1314273539.55249548,-0.39513850,0.50330281,-0.79189211
1314273539.60368586,-0.39605838,0.50343364,-0.79141432
1314273539.65246868,-0.39418209,0.50452447,-0.78932315
1314273539.70544600,-0.39395994,0.50279391,-0.79261798
1314273539.75267601,-0.39397225,0.50327510,-0.79049724
1314273539.80159187,-0.39628625,0.50292516,-0.79075950
1314273539.85389924,-0.39537731,0.50317383,-0.79137355
1314273539.90461564,-0.39513555,0.50292480,-0.79188913
1314273539.94564533,-0.39350599,0.50388819,-0.78941262
1314273540.00155377,-0.39431843,0.50568277,-0.79146457
1314273540.05346036,-0.39495522,0.50427419,-0.78870136
1314273540.10616541,-0.39492244,0.50313568,-0.78829259
1314273540.15246630,-0.39384934,0.50390506,-0.79062772
1314273540.20147538,-0.39527631,0.50355637,-0.79190189
1314273540.25400496,-0.39471459,0.50213832,-0.78946865
1314273540.30447197,-0.39511502,0.50327390,-0.78923428
1314273540.35353041,-0.39617032,0.50343060,-0.79102224
1314273540.40448117,-0.39459309,0.50505745,-0.79160839
1314273540.45265126,-0.39636281,0.50457531,-0.79183865
1314273540.50457048,-0.39726204,0.50105375,-0.79146540
1314273540.55247188,-0.39488927,0.50202149,-0.79014182
1314273540.60164881,-0.39641219,0.50166678,-0.79075736
1314273540.65401125,-0.39588070,0.50417888,-0.79061288
1314273540.70457697,-0.39473695,0.50405413,-0.79187477
1314273540.75350499,-0.39485389,0.50367463,-0.79161304
1314273540.80191779,-0.39652207,0.50241822,-0.79023796
1314273540.85247016,-0.39721113,0.50267953,-0.79041201
1314273540.90597272,-0.39416179,0.50404179,-0.79131061
1314273540.94445467,-0.39656448,0.50282818,-0.79316533
1314273541.00553966,-0.39425477,0.50466418,-0.79052365
1314273541.05390000,-0.39496818,0.50389928,-0.78896493
1314273541.10463238,-0.39554039,0.50353360,-0.78952610
1314273541.15353322,-0.39531508,0.50444442,-0.79244196
1314273541.19244313,-0.39500168,0.50317526,-0.79188335
1314273541.25252962,-0.39693394,0.50509006,-0.79227352
1314273541.30950189,-0.39547315,0.50518066,-0.79046422
1314273541.35248518,-0.39548421,0.50354731,-0.79085118
1314273541.40550900,-0.39539111,0.50493777,-0.79138744
1314273541.44174027,-0.39494249,0.50381738,-0.79308009
1314273541.50549436,-0.39495778,0.50467652,-0.79096234
1314273541.55261135,-0.39498714,0.50327384,-0.78935981
1314273541.60163927,-0.39667180,0.50317729,-0.79038495
1314273541.65250897,-0.39391148,0.50364089,-0.78943396
1314273541.69361591,-0.39331901,0.50352383,-0.79086024
1314273541.75249505,-0.39578864,0.50468892,-0.79127544
1314273541.80448985,-0.39550456,0.50302356,-0.78898901
1314273541.85245180,-0.39577812,0.50428510,-0.78888118
1314273541.90164280,-0.39410603,0.50403112,-0.79037768
1314273541.94162154,-0.39458328,0.50279105,-0.79172385
1314273542.00150394,-0.39483926,0.50477970,-0.78896409
1314273542.05352950,-0.39436907,0.50488883,-0.78787553
1314273542.10160017,-0.39493698,0.50303710,-0.79081613
1314273542.15247989,-0.39487219,0.50390536,-0.78962356
1314273542.19248319,-0.39590260,0.50393146,-0.79101068
1314273542.25348973,-0.39518556,0.50517452,-0.79018211
1314273542.30044866,-0.39601493,0.50390416,-0.78836066
1314273542.35251236,-0.39488170,0.50199562,-0.78775054
1314273542.40157485,-0.39511690,0.50453234,-0.78911090
1314273542.45349956,-0.39515090,0.50277752,-0.78989673
1314273542.50164175,-0.39331949,0.50249308,-0.78872758
1314273542.55246878,-0.39548665,0.50276852,-0.78872049
1314273542.60499334,-0.39509356,0.50249052,-0.78670377
1314273542.65370488,-0.39493099,0.50328755,-0.79068482
1314273542.69349098,-0.39657772,0.50444174,-0.79092020
1314273542.75360942,-0.39400840,0.50476724,-0.78865093
1314273542.80176759,-0.39518309,0.50376576,-0.78804648
1314273542.85359979,-0.39654639,0.50239843,-0.78837979
1314273542.90949917,-0.39539257,0.50403297,-0.78925574
1314273542.94449878,-0.39433390,0.50352263,-0.78972280
1314273543.00161386,-0.39382932,0.50541085,-0.79010648
1314273543.05358887,-0.39492434,0.50439411,-0.78816921
1314273543.10449910,-0.39513135,0.50325263,-0.78724283
1314273543.15248036,-0.39486292,0.50279570,-0.79187262
1314273543.19243956,-0.39296067,0.50463641,-0.78925425
1314273543.25349522,-0.39333043,0.50287259,-0.78886384
1314273543.30450273,-0.39643735,0.50378585,-0.78864950
1314273543.35249424,-0.39576226,0.50327563,-0.78873998
1314273543.40161777,-0.39459568,0.50226581,-0.78972840
1314273543.44147372,-0.39525470,0.50478590,-0.78912067
1314273543.50161886,-0.39431190,0.50477648,-0.78919959
1314273543.55251384,-0.39418215,0.50351799,-0.78944850
1314273543.60160017,-0.39564341,0.50239664,-0.78912514
1314273543.65363169,-0.39501360,0.50368077,-0.79202062
1314273543.69246173,-0.39336583,0.50340700,-0.79165894
1314273543.75524020,-0.39656875,0.50431424,-0.79078597
1314273543.80159974,-0.39563400,0.50329989,-0.79112351
1314273543.85358047,-0.39667040,0.50307560,-0.79264194
1314273543.90149856,-0.39463010,0.50267422,-0.79252249
1314273543.94169593,-0.39474592,0.50418162,-0.79200906
1314273544.00319767,-0.39490154,0.50569665,-0.79216200
1314273544.05355096,-0.39449561,0.50378072,-0.79013240
1314273544.10949707,-0.39522660,0.50228882,-0.79122555
1314273544.15354252,-0.39432007,0.50495267,-0.79384989
1314273544.19245124,-0.39450520,0.50305218,-0.79265100
1314273544.25252271,-0.39548770,0.50508207,-0.79298776
1314273544.30448294,-0.39515641,0.50355786,-0.79216069
1314273544.35354447,-0.39303201,0.50366801,-0.79283714
1314273544.40179014,-0.39373893,0.50519079,-0.79315442
1314273544.44521141,-0.39486235,0.50483292,-0.79387993
1314273544.50448203,-0.39568126,0.50534630,-0.79393047
1314273544.55249476,-0.39510763,0.50342274,-0.79136002
1314273544.60160398,-0.39665401,0.50410336,-0.79450804
1314273544.65245771,-0.39426741,0.50330710,-0.79317057
1314273544.69247985,-0.39459875,0.50382489,-0.79412305
1314273544.75349760,-0.39656886,0.50549537,-0.79517758
1314273544.80167079,-0.39604107,0.50332892,-0.79340482
1314273544.85247111,-0.39388496,0.50142014,-0.79379880
1314273544.90159321,-0.39463761,0.50370651,-0.79478848
1314273544.94329834,-0.39543858,0.50396484,-0.79457045
1314273545.00048161,-0.39491212,0.50509405,-0.79468161
1314273545.05352330,-0.39466882,0.50456870,-0.79293722
1314273545.10049152,-0.39633718,0.50348699,-0.79607916
1314273545.15250754,-0.39528477,0.50471467,-0.79416883
1314273545.19245648,-0.39662701,0.50573367,-0.79385453
1314273545.25258613,-0.39611071,0.50409710,-0.79447699
1314273545.30053639,-0.39495343,0.50419688,-0.79321635
1314273545.35247922,-0.39630967,0.50396049,-0.79329199
1314273545.40510249,-0.39542225,0.50398612,-0.79656190
1314273545.44197273,-0.39571482,0.50361580,-0.79697430
1314273545.50505877,-0.39431697,0.50658756,-0.79359621
1314273545.55250335,-0.39710769,0.50384086,-0.79307103
1314273545.60177207,-0.39563951,0.50408024,-0.79338747
1314273545.65330124,-0.39348030,0.50380629,-0.79352778
1314273545.69647503,-0.39519477,0.50447023,-0.79495871
1314273545.75350022,-0.39398429,0.50496173,-0.79502612
1314273545.80152702,-0.39467388,0.50318581,-0.79319286
1314273545.85351849,-0.39612606,0.50394982,-0.79248458
1314273545.90160942,-0.39645907,0.50373745,-0.79582232
1314273545.94161463,-0.39601079,0.50359917,-0.79513168
1314273546.00147128,-0.39505237,0.50456882,-0.79256070
1314273546.05253100,-0.39513040,0.50531417,-0.79150814
1314273546.10444999,-0.39747402,0.50272983,-0.79481030
